Tracking 29777 objects as of 4-Oct-2024
HD Live streaming from Space Station
objects crossing your sky now

DELTA 4 R/B

Track DELTA 4 R/B now!


NORAD ID: 37233
Int'l Code: 2010-063B
Perigee: 33,875.5 km
Apogee: 35,663.9 km
Inclination: 7.9 °
Period: 1,384.1 minutes
Semi major axis: 41140 km
RCS: Unknown
Launch date: November 21, 2010
Source: United States (US)
Launch site: AIR FORCE EASTERN TEST RANGE (AFETR)

Note: This is a ROCKET BODY
Your satellite tracking list
Your tracking list is empty




NASA's NSSDC Master Catalog

Two Line Element Set (TLE):
1 37233U 10063B   24277.17143005 -.00000086  00000-0  00000+0 0  9995
2 37233   7.8693  93.1771 0217354  42.4759 319.3861  1.04038866 19810
Source of the keplerian elements: McCants